• In Deutschland
  • Länderverzeichnis
  • Für 7 Tage
  • Wassertemperatur
  • Satellitenkarten
  • Wetterkarte
  • Widgets
  • user-avatar
    Anmelden

    Stündliche Wetter Göppingen

    Heute, 21 August, Dienstag

    Zeit Temperatur Niederschläge Wind Luftdruck Luftfeuchtigkeit
    00:00 +20°C° 0 mm 1 m/S 733 mmHg 88%
    01:00 +20°C° 0 mm 1 m/S 733 mmHg 89%
    02:00 +19°C° 0 mm 1 m/S 733 mmHg 90%
    03:00 +19°C° 0 mm 1 m/S 733 mmHg 91%
    04:00 +19°C° 0 mm 1 m/S 733 mmHg 92%
    05:00 +19°C° 0 mm 1 m/S 733 mmHg 90%
    06:00 +20°C° 0 mm 1 m/S 733 mmHg 88%
    07:00 +21°C° 0 mm 1 m/S 733 mmHg 86%
    08:00 +23°C° 0 mm 1 m/S 734 mmHg 79%
    09:00 +24°C° 0 mm 1 m/S 734 mmHg 71%
    10:00 +26°C° 0 mm 2 m/S 734 mmHg 64%
    11:00 +27°C° 0 mm 2 m/S 734 mmHg 61%
    12:00 +28°C° 0 mm 2 m/S 733 mmHg 58%
    13:00 +29°C° 0 mm 2 m/S 733 mmHg 55%
    14:00 +29°C° 0 mm 2 m/S 733 mmHg 55%
    15:00 +29°C° 0 mm 2 m/S 733 mmHg 54%
    16:00 +29°C° 0 mm 2 m/S 732 mmHg 54%
    17:00 +28°C° 0 mm 2 m/S 732 mmHg 60%
    18:00 +26°C° 0 mm 2 m/S 732 mmHg 66%
    19:00 +25°C° 0 mm 2 m/S 732 mmHg 71%
    20:00 +23°C° 0 mm 2 m/S 732 mmHg 74%
    21:00 +21°C° 0 mm 2 m/S 732 mmHg 77%
    22:00 +20°C° 0 mm 2 m/S 733 mmHg 79%
    23:00 +21°C° 0 mm 1 m/S 732 mmHg 81%

    Morgen, 22 August, Mittwoch

    Zeit Temperatur Niederschläge Wind Luftdruck Luftfeuchtigkeit
    00:00 +20°C° 0 mm 1 m/S 732 mmHg 84%
    01:00 +20°C° 0 mm 1 m/S 732 mmHg 86%
    02:00 +19°C° 0 mm 1 m/S 732 mmHg 87%
    03:00 +19°C° 0 mm 1 m/S 732 mmHg 89%
    04:00 +19°C° 0 mm 1 m/S 732 mmHg 91%
    05:00 +20°C° 0 mm 1 m/S 732 mmHg 89%
    06:00 +20°C° 0 mm 1 m/S 732 mmHg 88%
    07:00 +21°C° 0 mm 1 m/S 732 mmHg 86%
    08:00 +23°C° 0 mm 1 m/S 732 mmHg 79%
    09:00 +25°C° 0 mm 1 m/S 732 mmHg 72%
    10:00 +27°C° 0 mm 1 m/S 732 mmHg 65%
    11:00 +28°C° 0,1 mm 1 m/S 732 mmHg 61%
    12:00 +30°C° 0,1 mm 1 m/S 732 mmHg 56%
    13:00 +31°C° 0,1 mm 1 m/S 732 mmHg 52%
    14:00 +31°C° 0,1 mm 1 m/S 731 mmHg 52%
    15:00 +30°C° 0,1 mm 1 m/S 731 mmHg 53%
    16:00 +30°C° 0,1 mm 1 m/S 731 mmHg 53%
    17:00 +29°C° 0,6 mm 1 m/S 731 mmHg 59%
    18:00 +27°C° 0,6 mm 1 m/S 731 mmHg 64%
    19:00 +26°C° 0,6 mm 1 m/S 731 mmHg 69%
    20:00 +25°C° 0,5 mm 1 m/S 731 mmHg 72%
    21:00 +24°C° 0,5 mm 1 m/S 731 mmHg 75%
    22:00 +23°C° 0,5 mm 1 m/S 732 mmHg 78%
    23:00 +22°C° 0 mm 1 m/S 731 mmHg 80%

    übermorgen, 23 August, Donnerstag

    Zeit Temperatur Niederschläge Wind Luftdruck Luftfeuchtigkeit
    00:00 +22°C° 0 mm 1 m/S 731 mmHg 81%
    01:00 +21°C° 0 mm 1 m/S 731 mmHg 83%
    02:00 +21°C° 0 mm 1 m/S 731 mmHg 84%
    03:00 +20°C° 0 mm 1 m/S 731 mmHg 85%
    04:00 +20°C° 0 mm 1 m/S 731 mmHg 86%
    05:00 +21°C° 0 mm 1 m/S 731 mmHg 85%
    06:00 +21°C° 0 mm 1 m/S 731 mmHg 83%
    07:00 +22°C° 0 mm 1 m/S 731 mmHg 82%
    08:00 +24°C° 0,2 mm 1 m/S 731 mmHg 75%
    09:00 +25°C° 0,2 mm 1 m/S 731 mmHg 69%
    10:00 +27°C° 0,2 mm 1 m/S 731 mmHg 63%
    11:00 +28°C° 0,4 mm 2 m/S 731 mmHg 58%
    12:00 +29°C° 0,4 mm 2 m/S 730 mmHg 54%
    13:00 +30°C° 0,4 mm 2 m/S 730 mmHg 50%
    14:00 +30°C° 0,2 mm 2 m/S 730 mmHg 49%
    15:00 +30°C° 0,2 mm 2 m/S 730 mmHg 48%
    16:00 +30°C° 0,2 mm 2 m/S 730 mmHg 47%
    17:00 +28°C° 0,1 mm 2 m/S 729 mmHg 53%
    18:00 +27°C° 0,1 mm 2 m/S 729 mmHg 59%
    19:00 +25°C° 0,1 mm 2 m/S 729 mmHg 66%
    20:00 +24°C° 0,3 mm 2 m/S 729 mmHg 70%
    21:00 +23°C° 0,3 mm 2 m/S 729 mmHg 75%
    22:00 +20°C° 0,3 mm 2 m/S 729 mmHg 79%
    23:00 +20°C° 0,4 mm 2 m/S 729 mmHg 82%

    24 August, Freitag

    Zeit Temperatur Niederschläge Wind Luftdruck Luftfeuchtigkeit
    00:00 +20°C° 0,4 mm 2 m/S 729 mmHg 85%
    01:00 +19°C° 0,4 mm 2 m/S 729 mmHg 88%
    02:00 +19°C° 0 mm 2 m/S 729 mmHg 90%
    03:00 +18°C° 0 mm 2 m/S 729 mmHg 91%
    04:00 +18°C° 0 mm 2 m/S 729 mmHg 93%
    05:00 +18°C° 0 mm 2 m/S 729 mmHg 93%
    06:00 +18°C° 0 mm 2 m/S 729 mmHg 92%
    07:00 +18°C° 0 mm 3 m/S 729 mmHg 91%
    08:00 +19°C° 0,2 mm 3 m/S 729 mmHg 88%
    09:00 +19°C° 0,2 mm 3 m/S 729 mmHg 85%
    10:00 +19°C° 0,2 mm 4 m/S 730 mmHg 82%
    11:00 +20°C° 0,1 mm 4 m/S 730 mmHg 73%
    12:00 +21°C° 0,1 mm 4 m/S 730 mmHg 64%
    13:00 +22°C° 0,1 mm 5 m/S 730 mmHg 54%
    14:00 +22°C° 0 mm 5 m/S 730 mmHg 54%
    15:00 +21°C° 0 mm 5 m/S 730 mmHg 54%
    16:00 +21°C° 0 mm 5 m/S 730 mmHg 54%
    17:00 +20°C° 0 mm 4 m/S 730 mmHg 57%
    18:00 +19°C° 0 mm 3 m/S 730 mmHg 60%
    19:00 +17°C° 0 mm 3 m/S 730 mmHg 62%
    20:00 +16°C° 0 mm 2 m/S 731 mmHg 65%
    21:00 +15°C° 0 mm 2 m/S 731 mmHg 68%
    22:00 +14°C° 0 mm 2 m/S 731 mmHg 71%
    23:00 +13°C° 0 mm 1 m/S 731 mmHg 73%

    25 August, Samstag

    Zeit Temperatur Niederschläge Wind Luftdruck Luftfeuchtigkeit
    00:00 +12°C° 0 mm 1 m/S 731 mmHg 75%
    01:00 +12°C° 0 mm 1 m/S 731 mmHg 77%
    02:00 +11°C° 0 mm 1 m/S 731 mmHg 78%
    03:00 +11°C° 0 mm 1 m/S 731 mmHg 79%
    04:00 +11°C° 0 mm 1 m/S 730 mmHg 80%
    05:00 +11°C° 0 mm 1 m/S 730 mmHg 77%
    06:00 +12°C° 0 mm 1 m/S 730 mmHg 75%
    07:00 +13°C° 0 mm 1 m/S 730 mmHg 73%
    08:00 +14°C° 0 mm 1 m/S 730 mmHg 68%
    09:00 +15°C° 0 mm 1 m/S 730 mmHg 63%
    10:00 +16°C° 0 mm 1 m/S 729 mmHg 58%
    11:00 +16°C° 0,1 mm 2 m/S 729 mmHg 58%
    12:00 +16°C° 0,1 mm 2 m/S 729 mmHg 59%
    13:00 +16°C° 0,1 mm 2 m/S 728 mmHg 59%
    14:00 +16°C° 0,4 mm 1 m/S 728 mmHg 64%
    15:00 +15°C° 0,4 mm 1 m/S 728 mmHg 69%
    16:00 +15°C° 0,4 mm 1 m/S 727 mmHg 74%
    17:00 +14°C° 0,1 mm 1 m/S 727 mmHg 78%
    18:00 +13°C° 0,1 mm 0 m/S 727 mmHg 82%
    19:00 +12°C° 0,1 mm 0 m/S 726 mmHg 86%
    20:00 +12°C° 0,5 mm 0 m/S 726 mmHg 88%
    21:00 +12°C° 0,5 mm 1 m/S 726 mmHg 91%
    22:00 +12°C° 0,5 mm 1 m/S 726 mmHg 94%
    23:00 +12°C° 0,3 mm 1 m/S 726 mmHg 95%

    26 August, Sonntag

    Zeit Temperatur Niederschläge Wind Luftdruck Luftfeuchtigkeit
    00:00 +12°C° 0,3 mm 1 m/S 725 mmHg 95%
    01:00 +11°C° 0,3 mm 1 m/S 725 mmHg 96%
    02:00 +11°C° 0,3 mm 1 m/S 724 mmHg 96%
    03:00 +12°C° 0,3 mm 1 m/S 724 mmHg 96%
    04:00 +12°C° 0,3 mm 1 m/S 723 mmHg 96%
    05:00 +12°C° 1,6 mm 1 m/S 723 mmHg 96%
    06:00 +12°C° 1,6 mm 1 m/S 723 mmHg 96%
    07:00 +12°C° 1,6 mm 1 m/S 722 mmHg 96%
    08:00 +13°C° 0,6 mm 2 m/S 723 mmHg 93%
    09:00 +13°C° 0,6 mm 2 m/S 723 mmHg 91%
    10:00 +14°C° 0,6 mm 2 m/S 723 mmHg 88%
    11:00 +14°C° 0,5 mm 2 m/S 724 mmHg 87%
    12:00 +13°C° 0,5 mm 3 m/S 724 mmHg 87%
    13:00 +13°C° 0,5 mm 3 m/S 725 mmHg 86%
    14:00 +13°C° 0,4 mm 3 m/S 726 mmHg 86%
    15:00 +13°C° 0,4 mm 3 m/S 726 mmHg 86%
    16:00 +13°C° 0,4 mm 4 m/S 727 mmHg 86%
    17:00 +12°C° 0,2 mm 4 m/S 727 mmHg 88%
    18:00 +12°C° 0,2 mm 3 m/S 728 mmHg 89%
    19:00 +11°C° 0,2 mm 3 m/S 729 mmHg 91%
    20:00 +11°C° 0 mm 3 m/S 729 mmHg 91%
    21:00 +10°C° 0 mm 2 m/S 730 mmHg 92%
    22:00 +10°C° 0 mm 2 m/S 731 mmHg 93%
    23:00 +9°C° 0 mm 2 m/S 731 mmHg 93%
    Mehr zeigen